{"data":{"norad_id":56913,"epoch":"2026-05-24T22:55:50.587968Z","epoch_age_seconds":68942,"freshness":"FRESH","line1":"1 56913U 23083AP  26144.95544662 -.00000030  00000+0  84415-5 0  9998","line2":"2 56913  43.0022 359.8345 0001088 264.0846  95.9882 15.27575025163461","mean_motion":15.27575025,"eccentricity":0.0001088,"inclination_deg":43.0022,"raan_deg":359.8345,"arg_perigee_deg":264.0846,"mean_anomaly_deg":95.9882,"bstar":8.4415e-6,"rev_number":16346,"period_min":94.267055721208,"perigee_km":482.31749435179,"apogee_km":483.81049168787,"semimajor_km":6861.2009930198,"source":"CELESTRAK","updated_at":"2026-05-25T13:38:18.204240Z"}}